Year,Month,Day,Hour,Minute,Value (Times are PST for temperature in C)
2016,04,21,00,00,12.30
2016,04,21,00,01,12.30
2016,04,21,00,02,12.20
2016,04,21,00,03,12.20
2016,04,21,00,04,12.20
2016,04,21,00,05,12.20
2016,04,21,00,06,12.20
2016,04,21,00,07,12.20
2016,04,21,00,08,12.10
2016,04,21,00,09,12.10
2016,04,21,00,10,12.10
2016,04,21,00,11,12.10
2016,04,21,00,12,12.10
2016,04,21,00,13,12.10
2016,04,21,00,14,12.10
2016,04,21,00,15,12.10
2016,04,21,00,16,12.00
2016,04,21,00,17,12.00
2016,04,21,00,18,12.00
2016,04,21,00,19,12.00
2016,04,21,00,20,12.00
2016,04,21,00,21,11.90
2016,04,21,00,22,11.90
2016,04,21,00,23,11.90
2016,04,21,00,24,11.90
2016,04,21,00,25,11.90
2016,04,21,00,26,11.90
2016,04,21,00,27,11.90
2016,04,21,00,28,11.90
2016,04,21,00,29,11.90
2016,04,21,00,30,11.90
2016,04,21,00,31,11.90
2016,04,21,00,32,11.90
2016,04,21,00,33,11.90
2016,04,21,00,34,11.90
2016,04,21,00,35,11.90
2016,04,21,00,36,11.90
2016,04,21,00,37,11.90
2016,04,21,00,38,11.90
2016,04,21,00,39,11.90
2016,04,21,00,40,11.90
2016,04,21,00,41,11.90
2016,04,21,00,42,11.90
2016,04,21,00,43,11.90
2016,04,21,00,44,11.90
2016,04,21,00,45,11.90
2016,04,21,00,46,11.90
2016,04,21,00,47,11.90
2016,04,21,00,48,11.80
2016,04,21,00,49,11.80
2016,04,21,00,50,11.80
2016,04,21,00,51,11.80
2016,04,21,00,52,11.80
2016,04,21,00,53,11.80
2016,04,21,00,54,11.80
2016,04,21,00,55,11.90
2016,04,21,00,56,11.90
2016,04,21,00,57,11.90
2016,04,21,00,58,11.90
2016,04,21,00,59,11.90
2016,04,21,01,00,11.90
2016,04,21,01,01,11.90
2016,04,21,01,02,11.90
2016,04,21,01,03,11.90
2016,04,21,01,04,11.90
2016,04,21,01,05,11.90
2016,04,21,01,06,11.90
2016,04,21,01,07,11.90
2016,04,21,01,08,11.90
2016,04,21,01,09,11.90
2016,04,21,01,10,11.90
2016,04,21,01,11,11.90
2016,04,21,01,12,11.90
2016,04,21,01,13,11.80
2016,04,21,01,14,11.80
2016,04,21,01,15,11.80
2016,04,21,01,16,11.80
2016,04,21,01,17,11.80
2016,04,21,01,18,11.80
2016,04,21,01,19,11.70
2016,04,21,01,20,11.70
2016,04,21,01,21,11.70
2016,04,21,01,22,11.70
2016,04,21,01,23,11.60
2016,04,21,01,24,11.60
2016,04,21,01,25,11.60
2016,04,21,01,26,11.60
2016,04,21,01,27,11.60
2016,04,21,01,28,11.70
2016,04,21,01,29,11.70
2016,04,21,01,30,11.70
2016,04,21,01,31,11.70
2016,04,21,01,32,11.70
2016,04,21,01,33,11.70
2016,04,21,01,34,11.70
2016,04,21,01,35,11.70
2016,04,21,01,36,11.70
2016,04,21,01,37,11.70
2016,04,21,01,38,11.70
2016,04,21,01,39,11.70
2016,04,21,01,40,11.70
2016,04,21,01,41,11.70
2016,04,21,01,42,11.70
2016,04,21,01,43,11.70
2016,04,21,01,44,11.70
2016,04,21,01,45,11.70
2016,04,21,01,46,11.70
2016,04,21,01,47,11.70
2016,04,21,01,48,11.70
2016,04,21,01,49,11.70
2016,04,21,01,50,11.70
2016,04,21,01,51,11.70
2016,04,21,01,52,11.80
2016,04,21,01,53,11.80
2016,04,21,01,54,11.80
2016,04,21,01,55,11.80
2016,04,21,01,56,11.80
2016,04,21,01,57,11.80
2016,04,21,01,58,11.80
2016,04,21,01,59,11.80
2016,04,21,02,00,11.80
2016,04,21,02,01,11.80
2016,04,21,02,02,11.80
2016,04,21,02,03,11.80
2016,04,21,02,04,11.80
2016,04,21,02,05,11.80
2016,04,21,02,06,11.80
2016,04,21,02,07,11.80
2016,04,21,02,08,11.80
2016,04,21,02,09,11.80
2016,04,21,02,10,11.80
2016,04,21,02,11,11.80
2016,04,21,02,12,11.80
2016,04,21,02,13,11.80
2016,04,21,02,14,11.80
2016,04,21,02,15,11.80
2016,04,21,02,16,11.80
2016,04,21,02,17,11.80
2016,04,21,02,18,11.80
2016,04,21,02,19,11.80
2016,04,21,02,20,11.90
2016,04,21,02,21,11.90
2016,04,21,02,22,11.90
2016,04,21,02,23,11.90
2016,04,21,02,24,11.90
2016,04,21,02,25,12.00
2016,04,21,02,26,12.00
2016,04,21,02,27,12.00
2016,04,21,02,28,12.00
2016,04,21,02,29,12.00
2016,04,21,02,30,12.10
2016,04,21,02,31,12.10
2016,04,21,02,32,12.10
2016,04,21,02,33,12.10
2016,04,21,02,34,12.10
2016,04,21,02,35,12.10
2016,04,21,02,36,12.10
2016,04,21,02,37,12.10
2016,04,21,02,38,12.10
2016,04,21,02,39,12.10
2016,04,21,02,40,12.00
2016,04,21,02,41,12.00
2016,04,21,02,42,12.00
2016,04,21,02,43,12.00
2016,04,21,02,44,12.00
2016,04,21,02,45,12.00
2016,04,21,02,46,12.00
2016,04,21,02,47,11.90
2016,04,21,02,48,11.90
2016,04,21,02,49,11.90
2016,04,21,02,50,11.90
2016,04,21,02,51,11.90
2016,04,21,02,52,11.90
2016,04,21,02,53,11.90
2016,04,21,02,54,11.90
2016,04,21,02,55,11.90
2016,04,21,02,56,11.90
2016,04,21,02,57,11.90
2016,04,21,02,58,11.90
2016,04,21,02,59,12.00
2016,04,21,03,00,12.00
2016,04,21,03,01,12.00
2016,04,21,03,02,12.00
2016,04,21,03,03,12.00
2016,04,21,03,04,12.10
2016,04,21,03,05,12.10
2016,04,21,03,06,12.10
2016,04,21,03,07,12.10
2016,04,21,03,08,12.10
2016,04,21,03,09,12.10
2016,04,21,03,10,12.10
2016,04,21,03,11,12.10
2016,04,21,03,12,12.10
2016,04,21,03,13,12.10
2016,04,21,03,14,12.10
2016,04,21,03,15,12.10
2016,04,21,03,16,12.10
2016,04,21,03,17,12.10
2016,04,21,03,18,12.10
2016,04,21,03,19,12.10
2016,04,21,03,20,12.10
2016,04,21,03,21,12.10
2016,04,21,03,22,12.10
2016,04,21,03,23,12.10
2016,04,21,03,24,12.10
2016,04,21,03,25,12.20
2016,04,21,03,26,12.20
2016,04,21,03,27,12.20
2016,04,21,03,28,12.20
2016,04,21,03,29,12.20
2016,04,21,03,30,12.20
2016,04,21,03,31,12.20
2016,04,21,03,32,12.20
2016,04,21,03,33,12.20
2016,04,21,03,34,12.20
2016,04,21,03,35,12.20
2016,04,21,03,36,12.20
2016,04,21,03,37,12.20
2016,04,21,03,38,12.20
2016,04,21,03,39,12.20
2016,04,21,03,40,12.10
2016,04,21,03,41,12.10
2016,04,21,03,42,12.20
2016,04,21,03,43,12.20
2016,04,21,03,44,12.20
2016,04,21,03,45,12.30
2016,04,21,03,46,12.30
2016,04,21,03,47,12.30
2016,04,21,03,48,12.40
2016,04,21,03,49,12.40
2016,04,21,03,50,12.40
2016,04,21,03,51,12.40
2016,04,21,03,52,12.40
2016,04,21,03,53,12.50
2016,04,21,03,54,12.50
2016,04,21,03,55,12.50
2016,04,21,03,56,12.50
2016,04,21,03,57,12.50
2016,04,21,03,58,12.50
2016,04,21,03,59,12.50
2016,04,21,04,00,12.50
2016,04,21,04,01,12.50
2016,04,21,04,02,12.40
2016,04,21,04,03,12.40
2016,04,21,04,04,12.40
2016,04,21,04,05,12.40
2016,04,21,04,06,12.30
2016,04,21,04,07,12.30
2016,04,21,04,08,12.30
2016,04,21,04,09,12.30
2016,04,21,04,10,12.30
2016,04,21,04,11,12.20
2016,04,21,04,12,12.20
2016,04,21,04,13,12.20
2016,04,21,04,14,12.20
2016,04,21,04,15,12.20
2016,04,21,04,16,12.20
2016,04,21,04,17,12.20
2016,04,21,04,18,12.20
2016,04,21,04,19,12.20
2016,04,21,04,20,12.20
2016,04,21,04,21,12.20
2016,04,21,04,22,12.20
2016,04,21,04,23,12.20
2016,04,21,04,24,12.20
2016,04,21,04,25,12.20
2016,04,21,04,26,12.20
2016,04,21,04,27,12.20
2016,04,21,04,28,12.20
2016,04,21,04,29,12.20
2016,04,21,04,30,12.20
2016,04,21,04,31,12.20
2016,04,21,04,32,12.10
2016,04,21,04,33,12.10
2016,04,21,04,34,12.10
2016,04,21,04,35,12.10
2016,04,21,04,36,12.10
2016,04,21,04,37,12.10
2016,04,21,04,38,12.10
2016,04,21,04,39,12.10
2016,04,21,04,40,12.10
2016,04,21,04,41,12.00
2016,04,21,04,42,12.00
2016,04,21,04,43,12.00
2016,04,21,04,44,12.00
2016,04,21,04,45,12.00
2016,04,21,04,46,12.00
2016,04,21,04,47,12.00
2016,04,21,04,48,12.00
2016,04,21,04,49,12.00
2016,04,21,04,50,12.00
2016,04,21,04,51,12.00
2016,04,21,04,52,12.00
2016,04,21,04,53,12.00
2016,04,21,04,54,12.00
2016,04,21,04,55,12.00
2016,04,21,04,56,12.00
2016,04,21,04,57,12.00
2016,04,21,04,58,12.00
2016,04,21,04,59,12.00
2016,04,21,05,00,12.00
2016,04,21,05,01,12.00
2016,04,21,05,02,12.00
2016,04,21,05,03,12.00
2016,04,21,05,04,12.00
2016,04,21,05,05,12.00
2016,04,21,05,06,12.00
2016,04,21,05,07,12.00
2016,04,21,05,08,11.90
2016,04,21,05,09,11.90
2016,04,21,05,10,11.90
2016,04,21,05,11,12.00
2016,04,21,05,12,12.00
2016,04,21,05,13,12.00
2016,04,21,05,14,11.90
2016,04,21,05,15,12.00
2016,04,21,05,16,12.00
2016,04,21,05,17,12.00
2016,04,21,05,18,12.00
2016,04,21,05,19,12.00
2016,04,21,05,20,12.00
2016,04,21,05,21,12.00
2016,04,21,05,22,11.90
2016,04,21,05,23,12.00
2016,04,21,05,24,12.00
2016,04,21,05,25,12.00
2016,04,21,05,26,12.00
2016,04,21,05,27,12.00
2016,04,21,05,28,12.00
2016,04,21,05,29,12.00
2016,04,21,05,30,12.00
2016,04,21,05,31,12.00
2016,04,21,05,32,12.00
2016,04,21,05,33,12.00
2016,04,21,05,34,12.00
2016,04,21,05,35,12.00
2016,04,21,05,36,12.00
2016,04,21,05,37,12.00
2016,04,21,05,38,12.00
2016,04,21,05,39,12.00
2016,04,21,05,40,12.00
2016,04,21,05,41,12.00
2016,04,21,05,42,12.00
2016,04,21,05,43,12.00
2016,04,21,05,44,12.00
2016,04,21,05,45,12.00
2016,04,21,05,46,12.00
2016,04,21,05,47,12.00
2016,04,21,05,48,12.00
2016,04,21,05,49,12.00
2016,04,21,05,50,12.00
2016,04,21,05,51,11.90
2016,04,21,05,52,11.90
2016,04,21,05,53,11.90
2016,04,21,05,54,11.90
2016,04,21,05,55,11.90
2016,04,21,05,56,11.90
2016,04,21,05,57,11.90
2016,04,21,05,58,11.90
2016,04,21,05,59,11.90
2016,04,21,06,00,11.90
2016,04,21,06,01,11.90
2016,04,21,06,02,11.90
2016,04,21,06,03,11.90
2016,04,21,06,04,11.90
2016,04,21,06,05,11.90
2016,04,21,06,06,11.90
2016,04,21,06,07,11.90
2016,04,21,06,08,11.90
2016,04,21,06,09,11.90
2016,04,21,06,10,11.90
2016,04,21,06,11,11.90
2016,04,21,06,12,11.90
2016,04,21,06,13,11.90
2016,04,21,06,14,11.90
2016,04,21,06,15,11.90
2016,04,21,06,16,11.90
2016,04,21,06,17,11.90
2016,04,21,06,18,11.90
2016,04,21,06,19,11.90
2016,04,21,06,20,11.90
2016,04,21,06,21,11.90
2016,04,21,06,22,11.90
2016,04,21,06,23,11.90
2016,04,21,06,24,11.90
2016,04,21,06,25,11.90
2016,04,21,06,26,11.90
2016,04,21,06,27,11.90
2016,04,21,06,28,11.90
2016,04,21,06,29,12.00
2016,04,21,06,30,12.00
2016,04,21,06,31,12.00
2016,04,21,06,32,11.90
2016,04,21,06,33,11.90
2016,04,21,06,34,11.90
2016,04,21,06,35,11.90
2016,04,21,06,36,11.90
2016,04,21,06,37,11.90
2016,04,21,06,38,11.90
2016,04,21,06,39,11.90
2016,04,21,06,40,11.90
2016,04,21,06,41,11.90
2016,04,21,06,42,11.90
2016,04,21,06,43,11.90
2016,04,21,06,44,11.90
2016,04,21,06,45,11.90
2016,04,21,06,46,11.90
2016,04,21,06,47,11.90
2016,04,21,06,48,11.90
2016,04,21,06,49,11.90
2016,04,21,06,50,11.90
2016,04,21,06,51,11.90
2016,04,21,06,52,11.90
2016,04,21,06,53,11.90
2016,04,21,06,54,11.90
2016,04,21,06,55,11.90
2016,04,21,06,56,11.90
2016,04,21,06,57,11.90
2016,04,21,06,58,11.90
2016,04,21,06,59,11.90
2016,04,21,07,00,11.90
2016,04,21,07,01,11.90
2016,04,21,07,02,11.90
2016,04,21,07,03,12.00
2016,04,21,07,04,12.00
2016,04,21,07,05,12.00
2016,04,21,07,06,12.00
2016,04,21,07,07,12.00
2016,04,21,07,08,12.00
2016,04,21,07,09,12.00
2016,04,21,07,10,12.00
2016,04,21,07,11,12.00
2016,04,21,07,12,12.00
2016,04,21,07,13,12.00
2016,04,21,07,14,12.00
2016,04,21,07,15,12.00
2016,04,21,07,16,12.00
2016,04,21,07,17,12.00
2016,04,21,07,18,12.00
2016,04,21,07,19,12.00
2016,04,21,07,20,12.00
2016,04,21,07,21,12.00
2016,04,21,07,22,12.00
2016,04,21,07,23,12.00
2016,04,21,07,24,12.00
2016,04,21,07,25,12.00
2016,04,21,07,26,12.00
2016,04,21,07,27,12.00
2016,04,21,07,28,12.00
2016,04,21,07,29,12.00
2016,04,21,07,30,12.00
2016,04,21,07,31,12.00
2016,04,21,07,32,12.00
2016,04,21,07,33,12.00
2016,04,21,07,34,12.00
2016,04,21,07,35,12.00
2016,04,21,07,36,12.00
2016,04,21,07,37,12.00
2016,04,21,07,38,12.00
2016,04,21,07,39,12.00
2016,04,21,07,40,12.00
2016,04,21,07,41,12.00
2016,04,21,07,42,12.00
2016,04,21,07,43,12.00
2016,04,21,07,44,12.00
2016,04,21,07,45,12.00
2016,04,21,07,46,12.00
2016,04,21,07,47,12.00
2016,04,21,07,48,12.00
2016,04,21,07,49,12.00
2016,04,21,07,50,12.00
2016,04,21,07,51,12.00
2016,04,21,07,52,11.90
2016,04,21,07,53,12.00
2016,04,21,07,54,12.00
2016,04,21,07,55,11.90
2016,04,21,07,56,11.90
2016,04,21,07,57,12.00
2016,04,21,07,58,11.90
2016,04,21,07,59,12.00
2016,04,21,08,00,12.00
2016,04,21,08,01,12.00
2016,04,21,08,02,12.00
2016,04,21,08,03,12.00
2016,04,21,08,04,12.00
2016,04,21,08,05,12.10
2016,04,21,08,06,12.10
2016,04,21,08,07,12.10
2016,04,21,08,08,12.10
2016,04,21,08,09,12.10
2016,04,21,08,10,12.10
2016,04,21,08,11,12.10
2016,04,21,08,12,12.10
2016,04,21,08,13,12.20
2016,04,21,08,14,12.20
2016,04,21,08,15,12.20
2016,04,21,08,16,12.20
2016,04,21,08,17,12.20
2016,04,21,08,18,12.20
2016,04,21,08,19,12.20
2016,04,21,08,20,12.20
2016,04,21,08,21,12.30
2016,04,21,08,22,12.30
2016,04,21,08,23,12.30
2016,04,21,08,24,12.30
2016,04,21,08,25,12.30
2016,04,21,08,26,12.30
2016,04,21,08,27,12.30
2016,04,21,08,28,12.30
2016,04,21,08,29,12.30
2016,04,21,08,30,12.40
2016,04,21,08,31,12.40
2016,04,21,08,32,12.50
2016,04,21,08,33,12.50
2016,04,21,08,34,12.60
2016,04,21,08,35,12.60
2016,04,21,08,36,12.60
2016,04,21,08,37,12.60
2016,04,21,08,38,12.60
2016,04,21,08,39,12.60
2016,04,21,08,40,12.70
2016,04,21,08,41,12.70
2016,04,21,08,42,12.70
2016,04,21,08,43,12.70
2016,04,21,08,44,12.70
2016,04,21,08,45,12.70
2016,04,21,08,46,12.70
2016,04,21,08,47,12.70
2016,04,21,08,48,12.70
2016,04,21,08,49,12.70
2016,04,21,08,50,12.70
2016,04,21,08,51,12.70
2016,04,21,08,52,12.70
2016,04,21,08,53,12.70
2016,04,21,08,54,12.70
2016,04,21,08,55,12.70
2016,04,21,08,56,12.70
2016,04,21,08,57,12.70
2016,04,21,08,58,12.70
2016,04,21,08,59,12.70
2016,04,21,09,00,12.70
2016,04,21,09,01,12.60
2016,04,21,09,02,12.60
2016,04,21,09,03,12.60
2016,04,21,09,04,12.60
2016,04,21,09,05,12.60
2016,04,21,09,06,12.60
2016,04,21,09,07,12.60
2016,04,21,09,08,12.60
2016,04,21,09,09,12.60
2016,04,21,09,10,12.60
2016,04,21,09,11,12.60
2016,04,21,09,12,12.60
2016,04,21,09,13,12.60
2016,04,21,09,14,12.70
2016,04,21,09,15,12.70
2016,04,21,09,16,12.70
2016,04,21,09,17,12.70
2016,04,21,09,18,12.80
2016,04,21,09,19,12.80
2016,04,21,09,20,12.80
2016,04,21,09,21,12.90
2016,04,21,09,22,12.90
2016,04,21,09,23,12.90
2016,04,21,09,24,13.00
2016,04,21,09,25,13.00
2016,04,21,09,26,13.00
2016,04,21,09,27,13.00
2016,04,21,09,28,13.00
2016,04,21,09,29,13.10
2016,04,21,09,30,13.10
2016,04,21,09,31,13.10
2016,04,21,09,32,13.10
2016,04,21,09,33,13.20
2016,04,21,09,34,13.20
2016,04,21,09,35,13.30
2016,04,21,09,36,13.40
2016,04,21,09,37,13.50
2016,04,21,09,38,13.60
2016,04,21,09,39,13.70
2016,04,21,09,40,13.80
2016,04,21,09,41,13.90
2016,04,21,09,42,13.90
2016,04,21,09,43,14.00
2016,04,21,09,44,14.00
2016,04,21,09,45,14.10
2016,04,21,09,46,14.10
2016,04,21,09,47,14.20
2016,04,21,09,48,14.30
2016,04,21,09,49,14.30
2016,04,21,09,50,14.40
2016,04,21,09,51,14.40
2016,04,21,09,52,14.50
2016,04,21,09,53,14.60
2016,04,21,09,54,14.60
2016,04,21,09,55,14.70
2016,04,21,09,56,14.80
2016,04,21,09,57,14.80
2016,04,21,09,58,14.90
2016,04,21,09,59,15.00
2016,04,21,10,00,15.10
2016,04,21,10,01,15.10
2016,04,21,10,02,15.10
2016,04,21,10,03,15.10
2016,04,21,10,04,15.10
2016,04,21,10,05,15.10
2016,04,21,10,06,15.20
2016,04,21,10,07,15.20
2016,04,21,10,08,15.20
2016,04,21,10,09,15.20
2016,04,21,10,10,15.30
2016,04,21,10,11,15.30
2016,04,21,10,12,15.30
2016,04,21,10,13,15.40
2016,04,21,10,14,15.40
2016,04,21,10,15,15.40
2016,04,21,10,16,15.40
2016,04,21,10,17,15.30
2016,04,21,10,18,15.30
2016,04,21,10,19,15.30
2016,04,21,10,20,15.30
2016,04,21,10,21,15.30
2016,04,21,10,22,15.30
2016,04,21,10,23,15.30
2016,04,21,10,24,15.20
2016,04,21,10,25,15.20
2016,04,21,10,26,15.20
2016,04,21,10,27,15.20
2016,04,21,10,28,15.20
2016,04,21,10,29,15.20
2016,04,21,10,30,15.20
2016,04,21,10,31,15.30
2016,04,21,10,32,15.30
2016,04,21,10,33,15.30
2016,04,21,10,34,15.40
2016,04,21,10,35,15.40
2016,04,21,10,36,15.50
2016,04,21,10,37,15.60
2016,04,21,10,38,15.70
2016,04,21,10,39,15.70
2016,04,21,10,40,15.70
2016,04,21,10,41,15.60
2016,04,21,10,42,15.60
2016,04,21,10,43,15.60
2016,04,21,10,44,15.50
2016,04,21,10,45,15.50
2016,04,21,10,46,15.40
2016,04,21,10,47,15.30
2016,04,21,10,48,15.30
2016,04,21,10,49,15.20
2016,04,21,10,50,15.10
2016,04,21,10,51,15.10
2016,04,21,10,52,15.00
2016,04,21,10,53,14.90
2016,04,21,10,54,14.80
2016,04,21,10,55,14.70
2016,04,21,10,56,14.70
2016,04,21,10,57,14.70
2016,04,21,10,58,14.70
2016,04,21,10,59,14.70
2016,04,21,11,00,14.70
2016,04,21,11,01,14.70
2016,04,21,11,02,14.70
2016,04,21,11,03,14.80
2016,04,21,11,04,14.80
2016,04,21,11,05,14.80
2016,04,21,11,06,14.90
2016,04,21,11,07,15.00
2016,04,21,11,08,15.10
2016,04,21,11,09,15.10
2016,04,21,11,10,15.10
2016,04,21,11,11,15.10
2016,04,21,11,12,15.10
2016,04,21,11,13,14.90
2016,04,21,11,14,14.80
2016,04,21,11,15,14.70
2016,04,21,11,16,14.70
2016,04,21,11,17,14.60
2016,04,21,11,18,14.60
2016,04,21,11,19,14.50
2016,04,21,11,20,14.50
2016,04,21,11,21,14.50
2016,04,21,11,22,14.50
2016,04,21,11,23,14.50
2016,04,21,11,24,14.60
2016,04,21,11,25,14.60
2016,04,21,11,26,14.70
2016,04,21,11,27,14.70
2016,04,21,11,28,14.80
2016,04,21,11,29,14.90
2016,04,21,11,30,14.90
2016,04,21,11,31,15.00
2016,04,21,11,32,15.10
2016,04,21,11,33,15.20
2016,04,21,11,34,15.20
2016,04,21,11,35,15.30
2016,04,21,11,36,15.30
2016,04,21,11,37,15.30
2016,04,21,11,38,15.30
2016,04,21,11,39,15.30
2016,04,21,11,40,15.30
2016,04,21,11,41,15.40
2016,04,21,11,42,15.40
2016,04,21,11,43,15.40
2016,04,21,11,44,15.40
2016,04,21,11,45,15.40
2016,04,21,11,46,15.40
2016,04,21,11,47,15.40
2016,04,21,11,48,15.50
2016,04,21,11,49,15.50
2016,04,21,11,50,15.60
2016,04,21,11,51,15.60
2016,04,21,11,52,15.70
2016,04,21,11,53,15.70
2016,04,21,11,54,15.70
2016,04,21,11,55,15.70
2016,04,21,11,56,15.70
2016,04,21,11,57,15.70
2016,04,21,11,58,15.70
2016,04,21,11,59,15.70
2016,04,21,12,00,15.70
2016,04,21,12,01,15.70
2016,04,21,12,02,15.70
2016,04,21,12,03,15.70
2016,04,21,12,04,15.70
2016,04,21,12,05,15.70
2016,04,21,12,06,15.70
2016,04,21,12,07,15.70
2016,04,21,12,08,15.70
2016,04,21,12,09,15.70
2016,04,21,12,10,15.80
2016,04,21,12,11,15.80
2016,04,21,12,12,15.80
2016,04,21,12,13,15.80
2016,04,21,12,14,15.80
2016,04,21,12,15,15.80
2016,04,21,12,16,15.80
2016,04,21,12,17,15.80
2016,04,21,12,18,15.80
2016,04,21,12,19,15.80
2016,04,21,12,20,15.80
2016,04,21,12,21,15.80
2016,04,21,12,22,15.70
2016,04,21,12,23,15.70
2016,04,21,12,24,15.70
2016,04,21,12,25,15.70
2016,04,21,12,26,15.60
2016,04,21,12,27,15.60
2016,04,21,12,28,15.60
2016,04,21,12,29,15.60
2016,04,21,12,30,15.60
2016,04,21,12,31,15.60
2016,04,21,12,32,15.60
2016,04,21,12,33,15.60
2016,04,21,12,34,15.60
2016,04,21,12,35,15.60
2016,04,21,12,36,15.70
2016,04,21,12,37,15.70
2016,04,21,12,38,15.70
2016,04,21,12,39,15.80
2016,04,21,12,40,15.80
2016,04,21,12,41,15.80
2016,04,21,12,42,15.80
2016,04,21,12,43,15.80
2016,04,21,12,44,15.80
2016,04,21,12,45,15.80
2016,04,21,12,46,15.70
2016,04,21,12,47,15.70
2016,04,21,12,48,15.70
2016,04,21,12,49,15.70
2016,04,21,12,50,15.70
2016,04,21,12,51,15.80
2016,04,21,12,52,15.80
2016,04,21,12,53,15.80
2016,04,21,12,54,15.80
2016,04,21,12,55,15.80
2016,04,21,12,56,15.80
2016,04,21,12,57,15.80
2016,04,21,12,58,15.80
2016,04,21,12,59,15.80
2016,04,21,13,00,15.90
2016,04,21,13,01,15.90
2016,04,21,13,02,15.90
2016,04,21,13,03,15.90
2016,04,21,13,04,15.90
2016,04,21,13,05,15.90
2016,04,21,13,06,15.90
2016,04,21,13,07,16.00
2016,04,21,13,08,16.00
2016,04,21,13,09,16.00
2016,04,21,13,10,15.90
2016,04,21,13,11,15.90
2016,04,21,13,12,15.90
2016,04,21,13,13,15.90
2016,04,21,13,14,15.80
2016,04,21,13,15,15.80
2016,04,21,13,16,15.70
2016,04,21,13,17,15.70
2016,04,21,13,18,15.70
2016,04,21,13,19,15.70
2016,04,21,13,20,15.60
2016,04,21,13,21,15.60
2016,04,21,13,22,15.60
2016,04,21,13,23,15.60
2016,04,21,13,24,15.60
2016,04,21,13,25,15.60
2016,04,21,13,26,15.60
2016,04,21,13,27,15.60
2016,04,21,13,28,15.70
2016,04,21,13,29,15.70
2016,04,21,13,30,15.70
2016,04,21,13,31,15.70
2016,04,21,13,32,15.80
2016,04,21,13,33,15.80
2016,04,21,13,34,15.80
2016,04,21,13,35,15.80
2016,04,21,13,36,15.80
2016,04,21,13,37,15.80
2016,04,21,13,38,15.80
2016,04,21,13,39,15.90
2016,04,21,13,40,15.90
2016,04,21,13,41,15.90
2016,04,21,13,42,16.00
2016,04,21,13,43,16.00
2016,04,21,13,44,16.00
2016,04,21,13,45,16.10
2016,04,21,13,46,16.10
2016,04,21,13,47,16.20
2016,04,21,13,48,16.30
2016,04,21,13,49,16.40
2016,04,21,13,50,16.40
2016,04,21,13,51,16.40
2016,04,21,13,52,16.40
2016,04,21,13,53,16.40
2016,04,21,13,54,16.40
2016,04,21,13,55,16.40
2016,04,21,13,56,16.30
2016,04,21,13,57,16.30
2016,04,21,13,58,16.30
2016,04,21,13,59,16.30
2016,04,21,14,00,16.30
2016,04,21,14,01,16.20
2016,04,21,14,02,16.20
2016,04,21,14,03,16.20
2016,04,21,14,04,16.20
2016,04,21,14,05,16.20
2016,04,21,14,06,16.20
2016,04,21,14,07,16.20
2016,04,21,14,08,16.10
2016,04,21,14,09,16.10
2016,04,21,14,10,16.10
2016,04,21,14,11,16.10
2016,04,21,14,12,16.10
2016,04,21,14,13,16.00
2016,04,21,14,14,16.00
2016,04,21,14,15,16.00
2016,04,21,14,16,16.00
2016,04,21,14,17,16.00
2016,04,21,14,18,16.00
2016,04,21,14,19,16.00
2016,04,21,14,20,16.00
2016,04,21,14,21,16.00
2016,04,21,14,22,16.00
2016,04,21,14,23,16.00
2016,04,21,14,24,16.10
2016,04,21,14,25,16.10
2016,04,21,14,26,16.10
2016,04,21,14,27,16.10
2016,04,21,14,28,16.00
2016,04,21,14,29,15.90
2016,04,21,14,30,15.90
2016,04,21,14,31,15.80
2016,04,21,14,32,15.80
2016,04,21,14,33,15.70
2016,04,21,14,34,15.70
2016,04,21,14,35,15.60
2016,04,21,14,36,15.60
2016,04,21,14,37,15.50
2016,04,21,14,38,15.50
2016,04,21,14,39,15.50
2016,04,21,14,40,15.50
2016,04,21,14,41,15.50
2016,04,21,14,42,15.50
2016,04,21,14,43,15.50
2016,04,21,14,44,15.50
2016,04,21,14,45,15.50
2016,04,21,14,46,15.50
2016,04,21,14,47,15.50
2016,04,21,14,48,15.50
2016,04,21,14,49,15.50
2016,04,21,14,50,15.50
2016,04,21,14,51,15.50
2016,04,21,14,52,15.50
2016,04,21,14,53,15.50
2016,04,21,14,54,15.50
2016,04,21,14,55,15.50
2016,04,21,14,56,15.40
2016,04,21,14,57,15.40
2016,04,21,14,58,15.30
2016,04,21,14,59,15.30
2016,04,21,15,00,15.30
2016,04,21,15,01,15.30
2016,04,21,15,02,15.20
2016,04,21,15,03,15.20
2016,04,21,15,04,15.30
2016,04,21,15,05,15.30
2016,04,21,15,06,15.30
2016,04,21,15,07,15.30
2016,04,21,15,08,15.30
2016,04,21,15,09,15.30
2016,04,21,15,10,15.30
2016,04,21,15,11,15.40
2016,04,21,15,12,15.40
2016,04,21,15,13,15.40
2016,04,21,15,14,15.50
2016,04,21,15,15,15.60
2016,04,21,15,16,15.60
2016,04,21,15,17,15.60
2016,04,21,15,18,15.70
2016,04,21,15,19,15.70
2016,04,21,15,20,15.80
2016,04,21,15,21,15.80
2016,04,21,15,22,15.70
2016,04,21,15,23,15.70
2016,04,21,15,24,15.70
2016,04,21,15,25,15.60
2016,04,21,15,26,15.60
2016,04,21,15,27,15.50
2016,04,21,15,28,15.40
2016,04,21,15,29,15.40
2016,04,21,15,30,15.30
2016,04,21,15,31,15.30
2016,04,21,15,32,15.30
2016,04,21,15,33,15.20
2016,04,21,15,34,15.20
2016,04,21,15,35,15.20
2016,04,21,15,36,15.20
2016,04,21,15,37,15.20
2016,04,21,15,38,15.20
2016,04,21,15,39,15.20
2016,04,21,15,40,15.20
2016,04,21,15,41,15.20
2016,04,21,15,42,15.10
2016,04,21,15,43,15.10
2016,04,21,15,44,15.10
2016,04,21,15,45,15.10
2016,04,21,15,46,15.10
2016,04,21,15,47,15.10
2016,04,21,15,48,15.10
2016,04,21,15,49,15.10
2016,04,21,15,50,15.10
2016,04,21,15,51,15.10
2016,04,21,15,52,15.10
2016,04,21,15,53,15.10
2016,04,21,15,54,15.20
2016,04,21,15,55,15.20
2016,04,21,15,56,15.20
2016,04,21,15,57,15.20
2016,04,21,15,58,15.20
2016,04,21,15,59,15.20
2016,04,21,16,00,15.20
2016,04,21,16,01,15.20
2016,04,21,16,02,15.10
2016,04,21,16,03,15.10
2016,04,21,16,04,15.00
2016,04,21,16,05,15.00
2016,04,21,16,06,15.00
2016,04,21,16,07,14.90
2016,04,21,16,08,14.90
2016,04,21,16,09,14.90
2016,04,21,16,10,14.90
2016,04,21,16,11,14.90
2016,04,21,16,12,14.90
2016,04,21,16,13,14.90
2016,04,21,16,14,14.90
2016,04,21,16,15,14.80
2016,04,21,16,16,14.80
2016,04,21,16,17,14.80
2016,04,21,16,18,14.80
2016,04,21,16,19,14.80
2016,04,21,16,20,14.80
2016,04,21,16,21,14.80
2016,04,21,16,22,14.80
2016,04,21,16,23,14.80
2016,04,21,16,24,14.80
2016,04,21,16,25,14.80
2016,04,21,16,26,14.90
2016,04,21,16,27,14.90
2016,04,21,16,28,14.90
2016,04,21,16,29,14.90
2016,04,21,16,30,15.00
2016,04,21,16,31,15.00
2016,04,21,16,32,14.90
2016,04,21,16,33,14.90
2016,04,21,16,34,14.80
2016,04,21,16,35,14.80
2016,04,21,16,36,14.70
2016,04,21,16,37,14.60
2016,04,21,16,38,14.50
2016,04,21,16,39,14.40
2016,04,21,16,40,14.30
2016,04,21,16,41,14.20
2016,04,21,16,42,14.20
2016,04,21,16,43,14.10
2016,04,21,16,44,14.10
2016,04,21,16,45,14.00
2016,04,21,16,46,14.00
2016,04,21,16,47,14.00
2016,04,21,16,48,13.90
2016,04,21,16,49,14.00
2016,04,21,16,50,14.00
2016,04,21,16,51,14.00
2016,04,21,16,52,14.00
2016,04,21,16,53,14.00
2016,04,21,16,54,14.10
2016,04,21,16,55,14.10
2016,04,21,16,56,14.10
2016,04,21,16,57,14.20
2016,04,21,16,58,14.20
2016,04,21,16,59,14.20
2016,04,21,17,00,14.20
2016,04,21,17,01,14.30
2016,04,21,17,02,14.30
2016,04,21,17,03,14.30
2016,04,21,17,04,14.30
2016,04,21,17,05,14.30
2016,04,21,17,06,14.30
2016,04,21,17,07,14.30
2016,04,21,17,08,14.30
2016,04,21,17,09,14.30
2016,04,21,17,10,14.20
2016,04,21,17,11,14.20
2016,04,21,17,12,14.20
2016,04,21,17,13,14.20
2016,04,21,17,14,14.20
2016,04,21,17,15,14.20
2016,04,21,17,16,14.20
2016,04,21,17,17,14.20
2016,04,21,17,18,14.20
2016,04,21,17,19,14.20